Notices

What's New in latest Release from April 7th, 2021:

- Updated Glossary, including Speed of Maximum Gust, and Total Hourly Precipitation

- Updated national and regional climate services offices contacts and prices information

- Addition of station inventory lists for 1981-2010, 1971-2000, and 1961-1990 Normals.

If you haven't already, please take our survey and provide feedback about our website: https://eccc.sondage-survey.ca/f/LanguageSelection.aspx?s=442ca660-fcf1-47c0-95a9-59707d6fd709

Hourly Data Report for October 15, 2003

TORONTO CITY
ONTARIO

43°40'00.000" N
79°24'00.000" W
112.50 m
6158355
71508
XTO

Download Data

Hourly Data (October 2003)
Hourly Data Report for October 15, 2003
TIME
LST
Temp Definition
°C
Dew Point Definition
°C
Rel Hum Definition
%
Precip. Amount Definition
mm

Wind Dir Definition
10's deg

Wind Spd Definition
km/h
Visibility Definition
km
Stn Press Definition
kPa
Hmdx Definition


Wind Chill Definition


Weather Definition


00:00 11.9 11.0 94   LegendMM LegendMM LegendMM 97.35     LegendNANA
01:00 11.2 9.6 90   LegendMM LegendMM LegendMM 97.31     LegendNANA
02:00 10.5 9.0 90   LegendMM LegendMM LegendMM 97.35     LegendNANA
03:00 10.2 8.9 92   LegendMM LegendMM LegendMM 97.37     LegendNANA
04:00 10.2 8.5 89   LegendMM LegendMM LegendMM 97.44     LegendNANA
05:00 10.0 7.8 86   LegendMM LegendMM LegendMM 97.57     LegendNANA
06:00 10.3 7.2 81   LegendMM LegendMM LegendMM 97.69     LegendNANA
07:00 9.9 7.2 83   LegendMM LegendMM LegendMM 97.86     LegendNANA
08:00 10.4 6.6 77   LegendMM LegendMM LegendMM 98.01     LegendNANA
09:00 10.9 6.0 72   LegendMM LegendMM LegendMM 98.11     LegendNANA
10:00 11.2 5.1 66   LegendMM LegendMM LegendMM 98.21     LegendNANA
11:00 11.9 3.9 58   LegendMM LegendMM LegendMM 98.36     LegendNANA
12:00 12.4 1.9 49   LegendMM LegendMM LegendMM 98.50     LegendNANA
13:00 12.4 0.5 44   LegendMM LegendMM LegendMM 98.63     LegendNANA
14:00 12.0 -0.1 43   LegendMM LegendMM LegendMM 98.79     LegendNANA
15:00 11.6 0.2 45   LegendMM LegendMM LegendMM 98.93     LegendNANA
16:00 10.9 0.8 50   LegendMM LegendMM LegendMM 99.06     LegendNANA
17:00 10.7 1.1 51   LegendMM LegendMM LegendMM 99.17     LegendNANA
18:00 10.1 1.3 54   LegendMM LegendMM LegendMM 99.28     LegendNANA
19:00 9.8 2.0 58   LegendMM LegendMM LegendMM 99.39     LegendNANA
20:00 9.7 2.8 62   LegendMM LegendMM LegendMM 99.46     LegendNANA
21:00 9.8 3.3 64   LegendMM LegendMM LegendMM 99.48     LegendNANA
22:00 9.9 3.9 66   LegendMM LegendMM LegendMM 99.50     LegendNANA
23:00 9.7 3.9 67   LegendMM LegendMM LegendMM 99.49     LegendNANA

Notes on Data Quality.

Legend

  • E = Estimated
  • M = Missing
  • NA = Not Available*
  • [empty] = Indicates an unobserved value
Date modified: